Location: Peebles
(55.6412°N, 3.1714°W)
Time: 23:36:16
(UTC+01:00)

CENTAUR R/B - Pass Details

Date: 23 January 2022
Orbit: 716 x 1471 km, 63.4° (Epoch: 08 May)

Event Time Altitude Azimuth Distance (km) Brightness Sun altitude
Rises 19:27:01 0° 269° (W) 3,654 6.9 -24.6°
Reaches altitude 10° 19:29:30 10° 275° (W) 2,810 6.0 -24.9°
Maximum altitude 19:36:02 49° 350° (N) 1,464 3.4 -25.9°
Enters shadow 19:38:52 35° 41° (NE) 1,873 3.6 -26.3°
